| time (UTC) | temp F | wind direction | speed MPH | gust MPH | rain 1hr in | rain 24hr in | rain mn in | humidity % | barometer mb |
| 20260509173711 | 57 | 273 | 9.0 | 12.0 | 0.00 | 0.00 | 0.00 | 73 | 1025.9 |
| 20260509173212 | 57 | 267 | 10.0 | 12.0 | 0.00 | 0.00 | 0.00 | 72 | 1025.9 |
| 20260509172712 | 57 | 260 | 9.0 | 12.0 | 0.00 | 0.00 | 0.00 | 72 | 1026.2 |
| 20260509172211 | 58 | 271 | 9.0 | 10.0 | 0.00 | 0.00 | 0.00 | 71 | 1026.3 |
| 20260509171712 | 58 | 270 | 7.0 | 9.0 | 0.00 | 0.00 | 0.00 | 71 | 1026.2 |
| 20260509171212 | 58 | 266 | 7.0 | 8.0 | 0.00 | 0.00 | 0.00 | 72 | 1026.0 |
| 20260509170712 | 58 | 258 | 6.0 | 8.0 | 0.00 | 0.00 | 0.00 | 72 | 1026.1 |
| 20260509170212 | 58 | 253 | 7.0 | 8.0 | 0.00 | 0.00 | 0.00 | 72 | 1026.1 |
| 20260509165711 | 58 | 251 | 7.0 | 9.0 | 0.00 | 0.00 | 0.00 | 72 | 1026.2 |
| 20260509165211 | 58 | 250 | 8.0 | 9.0 | 0.00 | 0.00 | 0.00 | 73 | 1025.9 |
| 20260509164211 | 58 | 241 | 7.0 | 8.0 | 0.00 | 0.00 | 0.00 | 73 | 1026.1 |
| 20260509163711 | 58 | 245 | 7.0 | 8.0 | 0.00 | 0.00 | 0.00 | 72 | 1026.1 |
| 20260509162711 | 58 | 240 | 7.0 | 9.0 | 0.00 | 0.00 | 0.00 | 72 | 1026.1 |
| 20260509161711 | 58 | 236 | 8.0 | 9.0 | 0.00 | 0.00 | 0.00 | 72 | 1026.2 |
| 20260509160711 | 59 | 239 | 8.0 | 9.0 | 0.00 | 0.00 | 0.00 | 71 | 1026.2 |
| 20260509155711 | 59 | 235 | 8.0 | 9.0 | 0.00 | 0.00 | 0.00 | 71 | 1026.3 |
| 20260509155212 | 59 | 226 | 8.0 | 9.0 | 0.00 | 0.00 | 0.00 | 73 | 1026.4 |
| 20260509154212 | 58 | 225 | 9.0 | 9.0 | 0.00 | 0.00 | 0.00 | 75 | 1026.3 |
| 20260509153212 | 58 | 235 | 8.0 | 9.0 | 0.00 | 0.00 | 0.00 | 74 | 1026.4 |
| 20260509152711 | 58 | 237 | 8.0 | 10.0 | 0.00 | 0.00 | 0.00 | 74 | 1026.3 |
| 20260509152211 | 58 | 239 | 8.0 | 9.0 | 0.00 | 0.00 | 0.00 | 74 | 1026.2 |
| 20260509151712 | 58 | 238 | 8.0 | 9.0 | 0.00 | 0.00 | 0.00 | 74 | 1026.4 |
| 20260509151211 | 58 | 235 | 8.0 | 9.0 | 0.00 | 0.00 | 0.00 | 74 | 1026.2 |
| 20260509150711 | 58 | 238 | 8.0 | 9.0 | 0.00 | 0.00 | 0.00 | 74 | 1026.3 |
| 20260509145211 | 58 | 235 | 8.0 | 9.0 | 0.00 | 0.00 | 0.00 | 74 | 1026.2 |
| 20260509144712 | 58 | 232 | 8.0 | 10.0 | 0.00 | 0.00 | 0.00 | 75 | 1026.2 |
| 20260509144212 | 58 | 233 | 9.0 | 10.0 | 0.00 | 0.00 | 0.00 | 75 | 1026.3 |
| 20260509143711 | 58 | 235 | 8.0 | 9.0 | 0.00 | 0.00 | 0.00 | 75 | 1026.4 |
| 20260509143211 | 58 | 238 | 8.0 | 9.0 | 0.00 | 0.00 | 0.00 | 75 | 1026.3 |
| 20260509142711 | 57 | 239 | 8.0 | 10.0 | 0.00 | 0.00 | 0.00 | 75 | 1026.3 |
| 20260509141712 | 57 | 242 | 8.0 | 9.0 | 0.00 | 0.00 | 0.00 | 75 | 1026.5 |
| 20260509141211 | 57 | 247 | 8.0 | 9.0 | 0.00 | 0.00 | 0.00 | 75 | 1026.3 |
| 20260509140712 | 57 | 248 | 9.0 | 10.0 | 0.00 | 0.00 | 0.00 | 75 | 1026.2 |
| 20260509140211 | 57 | 245 | 9.0 | 10.0 | 0.00 | 0.00 | 0.00 | 75 | 1026.2 |
| 20260509135712 | 57 | 247 | 9.0 | 9.0 | 0.00 | 0.00 | 0.00 | 75 | 1026.5 |
| 20260509134711 | 58 | 247 | 9.0 | 10.0 | 0.00 | 0.00 | 0.00 | 75 | 1026.3 |
| 20260509133712 | 58 | 243 | 7.0 | 9.0 | 0.00 | 0.00 | 0.00 | 75 | 1026.3 |
| 20260509132711 | 57 | 247 | 7.0 | 9.0 | 0.00 | 0.00 | 0.00 | 75 | 1026.3 |
| 20260509132211 | 58 | 251 | 7.0 | 8.0 | 0.00 | 0.00 | 0.00 | 74 | 1026.4 |
| 20260509131711 | 58 | 248 | 7.0 | 9.0 | 0.00 | 0.00 | 0.00 | 74 | 1026.3 |
| 20260509131211 | 58 | 248 | 7.0 | 9.0 | 0.00 | 0.00 | 0.00 | 74 | 1026.5 |
| 20260509130711 | 58 | 250 | 7.0 | 10.0 | 0.00 | 0.00 | 0.00 | 74 | 1026.6 |
| 20260509130211 | 58 | 248 | 8.0 | 9.0 | 0.00 | 0.00 | 0.00 | 74 | 1026.4 |
| 20260509125711 | 58 | 250 | 8.0 | 9.0 | 0.00 | 0.00 | 0.00 | 73 | 1026.5 |
| 20260509125211 | 58 | 251 | 8.0 | 10.0 | 0.00 | 0.00 | 0.00 | 73 | 1026.4 |
| 20260509124711 | 58 | 248 | 9.0 | 10.0 | 0.00 | 0.00 | 0.00 | 73 | 1026.5 |
| 20260509124211 | 58 | 250 | 8.0 | 9.0 | 0.00 | 0.00 | 0.00 | 73 | 1026.4 |
| 20260509123711 | 58 | 257 | 7.0 | 8.0 | 0.00 | 0.00 | 0.00 | 72 | 1026.6 |
| 20260509123211 | 58 | 259 | 7.0 | 10.0 | 0.00 | 0.00 | 0.00 | 72 | 1026.6 |
| 20260509122711 | 58 | 254 | 9.0 | 12.0 | 0.00 | 0.00 | 0.00 | 71 | 1026.5 |
| 20260509121211 | 59 | 250 | 8.0 | 10.0 | 0.00 | 0.00 | 0.00 | 71 | 1026.8 |
| 20260509115711 | 59 | 246 | 9.0 | 12.0 | 0.00 | 0.00 | 0.00 | 70 | 1026.4 |
| 20260509115211 | 60 | 248 | 7.0 | 8.0 | 0.00 | 0.00 | 0.00 | 70 | 1026.7 |
| 20260509114711 | 60 | 251 | 7.0 | 9.0 | 0.00 | 0.00 | 0.00 | 70 | 1026.6 |
| 20260509113711 | 60 | 250 | 8.0 | 10.0 | 0.00 | 0.00 | 0.00 | 69 | 1026.4 |
| 20260509112211 | 60 | 254 | 8.0 | 8.0 | 0.00 | 0.00 | 0.00 | 68 | 1026.5 |
| 20260509111211 | 61 | 255 | 7.0 | 8.0 | 0.00 | 0.00 | 0.00 | 67 | 1026.3 |
| 20260509110711 | 61 | 259 | 6.0 | 8.0 | 0.00 | 0.00 | 0.00 | 66 | 1026.6 |
| 20260509104711 | 63 | 224 | 6.0 | 7.0 | 0.00 | 0.00 | 0.00 | 64 | 1026.2 |
| 20260509104211 | 63 | 191 | 6.0 | 8.0 | 0.00 | 0.00 | 0.00 | 64 | 1026.3 |
| 20260509103712 | 63 | 199 | 7.0 | 9.0 | 0.00 | 0.00 | 0.00 | 63 | 1026.1 |
| 20260509103211 | 63 | 196 | 7.0 | 9.0 | 0.00 | 0.00 | 0.00 | 63 | 1026.3 |
| 20260509102711 | 63 | 187 | 8.0 | 9.0 | 0.00 | 0.00 | 0.00 | 63 | 1026.0 |
| 20260509102211 | 63 | 196 | 7.0 | 9.0 | 0.00 | 0.00 | 0.00 | 63 | 1026.1 |
| 20260509101711 | 63 | 189 | 7.0 | 9.0 | 0.00 | 0.00 | 0.00 | 63 | 1025.9 |
| 20260509100711 | 63 | 192 | 6.0 | 8.0 | 0.00 | 0.00 | 0.00 | 63 | 1026.0 |
| 20260509100211 | 63 | 193 | 6.0 | 8.0 | 0.00 | 0.00 | 0.00 | 64 | 1026.2 |
| 20260509095211 | 63 | 194 | 6.0 | 9.0 | 0.00 | 0.00 | 0.00 | 63 | 1025.7 |
| 20260509094711 | 63 | 194 | 7.0 | 9.0 | 0.00 | 0.00 | 0.00 | 63 | 1025.7 |
| 20260509094211 | 63 | 188 | 6.0 | 8.0 | 0.00 | 0.00 | 0.00 | 63 | 1025.8 |
| 20260509093711 | 63 | 195 | 7.0 | 9.0 | 0.00 | 0.00 | 0.00 | 61 | 1025.7 |
| 20260509093210 | 63 | 181 | 7.0 | 10.0 | 0.00 | 0.00 | 0.00 | 61 | 1025.6 |
| 20260509092211 | 63 | 183 | 7.0 | 9.0 | 0.00 | 0.00 | 0.00 | 61 | 1025.6 |
| 20260509091711 | 63 | 188 | 7.0 | 9.0 | 0.00 | 0.00 | 0.00 | 61 | 1025.6 |
| 20260509091210 | 63 | 182 | 7.0 | 9.0 | 0.00 | 0.00 | 0.00 | 62 | 1025.6 |
| 20260509090710 | 63 | 182 | 6.0 | 8.0 | 0.00 | 0.00 | 0.00 | 62 | 1025.4 |
| 20260509090211 | 63 | 184 | 5.0 | 6.0 | 0.00 | 0.00 | 0.00 | 62 | 1025.5 |
| 20260509085710 | 64 | 180 | 5.0 | 6.0 | 0.00 | 0.00 | 0.00 | 62 | 1025.4 |
| 20260509085211 | 64 | 172 | 3.0 | 5.0 | 0.00 | 0.00 | 0.00 | 62 | 1025.3 |
| 20260509084711 | 64 | 172 | 3.0 | 7.0 | 0.00 | 0.00 | 0.00 | 61 | 1025.3 |
| 20260509084211 | 64 | 174 | 6.0 | 8.0 | 0.00 | 0.00 | 0.00 | 61 | 1025.4 |
| 20260509083710 | 64 | 177 | 6.0 | 7.0 | 0.00 | 0.00 | 0.00 | 62 | 1025.2 |
| 20260509083211 | 64 | 167 | 6.0 | 8.0 | 0.00 | 0.00 | 0.00 | 63 | 1025.1 |
| 20260509082711 | 64 | 157 | 7.0 | 9.0 | 0.00 | 0.00 | 0.00 | 62 | 1025.0 |
| 20260509082211 | 64 | 160 | 7.0 | 9.0 | 0.00 | 0.00 | 0.00 | 61 | 1025.4 |
| 20260509081711 | 64 | 158 | 7.0 | 9.0 | 0.00 | 0.00 | 0.00 | 61 | 1024.9 |
| 20260509081210 | 64 | 162 | 6.0 | 10.0 | 0.00 | 0.00 | 0.00 | 62 | 1024.9 |
| 20260509080711 | 64 | 157 | 7.0 | 9.0 | 0.00 | 0.00 | 0.00 | 61 | 1025.0 |
| 20260509080211 | 64 | 162 | 6.0 | 8.0 | 0.00 | 0.00 | 0.00 | 61 | 1024.7 |
| 20260509075711 | 64 | 167 | 5.0 | 7.0 | 0.00 | 0.00 | 0.00 | 62 | 1024.9 |
| 20260509075211 | 64 | 160 | 6.0 | 9.0 | 0.00 | 0.00 | 0.00 | 62 | 1024.9 |
| 20260509074711 | 64 | 160 | 5.0 | 10.0 | 0.00 | 0.00 | 0.00 | 61 | 1024.5 |
| 20260509073711 | 64 | 148 | 6.0 | 10.0 | 0.00 | 0.00 | 0.00 | 61 | 1024.5 |
| 20260509073210 | 64 | 159 | 6.0 | 8.0 | 0.00 | 0.00 | 0.00 | 60 | 1024.5 |
| 20260509072710 | 64 | 151 | 6.0 | 8.0 | 0.00 | 0.00 | 0.00 | 60 | 1024.6 |
| 20260509071710 | 65 | 152 | 6.0 | 9.0 | 0.00 | 0.00 | 0.00 | 59 | 1024.3 |
| 20260509071211 | 65 | 150 | 7.0 | 10.0 | 0.00 | 0.00 | 0.00 | 59 | 1024.3 |
| 20260509070711 | 65 | 147 | 6.0 | 8.0 | 0.00 | 0.00 | 0.00 | 59 | 1024.3 |
| 20260509070210 | 65 | 148 | 5.0 | 8.0 | 0.00 | 0.00 | 0.00 | 57 | 1024.4 |
| 20260509065710 | 65 | 160 | 7.0 | 10.0 | 0.00 | 0.00 | 0.00 | 57 | 1024.1 |
| 20260509065211 | 65 | 153 | 6.0 | 9.0 | 0.00 | 0.00 | 0.00 | 57 | 1024.1 |
| 20260509064710 | 66 | 125 | 5.0 | 9.0 | 0.00 | 0.00 | 0.00 | 56 | 1024.2 |
| 20260509063711 | 66 | 159 | 7.0 | 12.0 | 0.00 | 0.00 | 0.00 | 55 | 1024.0 |
| 20260509063210 | 66 | 154 | 9.0 | 12.0 | 0.00 | 0.00 | 0.00 | 54 | 1024.0 |
| 20260509062710 | 67 | 150 | 10.0 | 13.0 | 0.00 | 0.00 | 0.00 | 54 | 1023.9 |
| 20260509062211 | 67 | 155 | 9.0 | 12.0 | 0.00 | 0.00 | 0.00 | 53 | 1023.9 |
| 20260509061711 | 67 | 148 | 5.0 | 8.0 | 0.00 | 0.00 | 0.00 | 54 | 1023.9 |
| 20260509061210 | 67 | 131 | 7.0 | 12.0 | 0.00 | 0.00 | 0.00 | 52 | 1023.8 |
| 20260509060711 | 67 | 155 | 7.0 | 13.0 | 0.00 | 0.00 | 0.00 | 51 | 1023.8 |
| 20260509060211 | 67 | 164 | 9.0 | 13.0 | 0.00 | 0.00 | 0.00 | 50 | 1023.9 |
| 20260509055210 | 67 | 155 | 6.0 | 12.0 | 0.00 | 0.00 | 0.00 | 52 | 1023.6 |
| 20260509054211 | 67 | 128 | 7.0 | 15.0 | 0.00 | 0.00 | 0.00 | 52 | 1023.4 |
| 20260509053711 | 67 | 143 | 11.0 | 15.0 | 0.00 | 0.00 | 0.00 | 51 | 1023.5 |
| 20260509053210 | 67 | 127 | 7.0 | 12.0 | 0.00 | 0.00 | 0.00 | 51 | 1023.5 |
| 20260509052710 | 67 | 159 | 6.0 | 13.0 | 0.00 | 0.00 | 0.00 | 53 | 1023.4 |
| 20260509052210 | 67 | 133 | 10.0 | 14.0 | 0.00 | 0.00 | 0.00 | 51 | 1023.5 |
| 20260509051711 | 67 | 157 | 9.0 | 13.0 | 0.00 | 0.00 | 0.00 | 52 | 1023.6 |
| 20260509050710 | 67 | 146 | 10.0 | 14.0 | 0.00 | 0.00 | 0.00 | 52 | 1023.3 |
| 20260509050210 | 67 | 155 | 7.0 | 13.0 | 0.00 | 0.00 | 0.00 | 51 | 1023.8 |
| 20260509045710 | 67 | 149 | 11.0 | 16.0 | 0.00 | 0.00 | 0.00 | 51 | 1023.4 |
| 20260509045209 | 67 | 136 | 12.0 | 14.0 | 0.00 | 0.00 | 0.00 | 51 | 1023.5 |
| 20260509044710 | 67 | 157 | 10.0 | 14.0 | 0.00 | 0.00 | 0.00 | 51 | 1023.3 |
| 20260509044210 | 67 | 177 | 10.0 | 15.0 | 0.00 | 0.00 | 0.00 | 51 | 1023.6 |
| 20260509043210 | 67 | 144 | 10.0 | 14.0 | 0.00 | 0.00 | 0.00 | 50 | 1023.2 |
| 20260509042710 | 67 | 167 | 10.0 | 14.0 | 0.00 | 0.00 | 0.00 | 50 | 1023.2 |
| 20260509042210 | 67 | 167 | 7.0 | 15.0 | 0.00 | 0.00 | 0.00 | 49 | 1023.3 |
| 20260509041710 | 68 | 112 | 9.0 | 14.0 | 0.00 | 0.00 | 0.00 | 49 | 1023.2 |
| 20260509041210 | 68 | 164 | 9.0 | 17.0 | 0.00 | 0.00 | 0.00 | 48 | 1023.4 |
| 20260509040711 | 68 | 144 | 9.0 | 13.0 | 0.00 | 0.00 | 0.00 | 48 | 1023.1 |
| 20260509040210 | 68 | 136 | 11.0 | 16.0 | 0.00 | 0.00 | 0.00 | 48 | 1023.2 |
| 20260509035710 | 68 | 145 | 9.0 | 14.0 | 0.00 | 0.00 | 0.00 | 49 | 1023.2 |
| 20260509035210 | 68 | 158 | 9.0 | 13.0 | 0.00 | 0.00 | 0.00 | 48 | 1023.2 |
| 20260509034710 | 68 | 153 | 10.0 | 16.0 | 0.00 | 0.00 | 0.00 | 49 | 1023.3 |
| 20260509034210 | 68 | 173 | 10.0 | 16.0 | 0.00 | 0.00 | 0.00 | 49 | 1023.3 |
| 20260509033710 | 68 | 155 | 8.0 | 14.0 | 0.00 | 0.00 | 0.00 | 49 | 1023.2 |
| 20260509033210 | 68 | 174 | 12.0 | 16.0 | 0.00 | 0.00 | 0.00 | 47 | 1023.4 |
| 20260509032710 | 68 | 148 | 7.0 | 20.0 | 0.00 | 0.00 | 0.00 | 49 | 1023.4 |
| 20260509031710 | 68 | 142 | 10.0 | 15.0 | 0.00 | 0.00 | 0.00 | 48 | 1023.4 |
| 20260509031210 | 68 | 148 | 10.0 | 16.0 | 0.00 | 0.00 | 0.00 | 48 | 1023.5 |
| 20260509030710 | 68 | 166 | 12.0 | 17.0 | 0.00 | 0.00 | 0.00 | 48 | 1023.6 |
| 20260509030210 | 69 | 137 | 11.0 | 18.0 | 0.00 | 0.00 | 0.00 | 49 | 1023.6 |
| 20260509025710 | 69 | 158 | 8.0 | 15.0 | 0.00 | 0.00 | 0.00 | 47 | 1023.5 |
| 20260509025210 | 69 | 132 | 12.0 | 18.0 | 0.00 | 0.00 | 0.00 | 48 | 1024.0 |
| 20260509024710 | 69 | 197 | 10.0 | 17.0 | 0.00 | 0.00 | 0.00 | 46 | 1023.8 |
| 20260509024210 | 69 | 151 | 13.0 | 18.0 | 0.00 | 0.00 | 0.00 | 45 | 1023.8 |
| 20260509023210 | 70 | 189 | 14.0 | 18.0 | 0.00 | 0.00 | 0.00 | 44 | 1024.0 |
| 20260509022710 | 70 | 148 | 10.0 | 17.0 | 0.00 | 0.00 | 0.00 | 45 | 1024.1 |
| 20260509022210 | 70 | 165 | 14.0 | 20.0 | 0.00 | 0.00 | 0.00 | 45 | 1024.0 |
| 20260509020710 | 70 | 179 | 13.0 | 20.0 | 0.00 | 0.00 | 0.00 | 44 | 1024.2 |
| 20260509015710 | 70 | 162 | 7.0 | 15.0 | 0.00 | 0.00 | 0.00 | 43 | 1024.3 |
| 20260509015210 | 70 | 180 | 11.0 | 17.0 | 0.00 | 0.00 | 0.00 | 43 | 1024.5 |
| 20260509014710 | 70 | 176 | 14.0 | 20.0 | 0.00 | 0.00 | 0.00 | 43 | 1024.4 |
| 20260509014210 | 70 | 189 | 10.0 | 20.0 | 0.00 | 0.00 | 0.00 | 44 | 1024.6 |
| 20260509013210 | 70 | 139 | 6.0 | 12.0 | 0.00 | 0.00 | 0.00 | 44 | 1024.7 |
| 20260509012710 | 70 | 193 | 13.0 | 17.0 | 0.00 | 0.00 | 0.00 | 42 | 1024.6 |
| 20260509012210 | 70 | 190 | 10.0 | 20.0 | 0.00 | 0.00 | 0.00 | 42 | 1024.9 |
| 20260509011710 | 70 | 165 | 8.0 | 14.0 | 0.00 | 0.00 | 0.00 | 42 | 1024.8 |
| 20260509011209 | 71 | 175 | 10.0 | 17.0 | 0.00 | 0.00 | 0.00 | 42 | 1024.7 |
| 20260509010710 | 71 | 195 | 10.0 | 14.0 | 0.00 | 0.00 | 0.00 | 42 | 1024.7 |
| 20260509010210 | 71 | 202 | 7.0 | 10.0 | 0.00 | 0.00 | 0.00 | 42 | 1024.8 |
| 20260509005710 | 70 | 194 | 3.0 | 12.0 | 0.00 | 0.00 | 0.00 | 43 | 1025.0 |
| 20260509005210 | 70 | 208 | 6.0 | 12.0 | 0.00 | 0.00 | 0.00 | 43 | 1024.8 |
| 20260509004709 | 70 | 200 | 7.0 | 15.0 | 0.00 | 0.00 | 0.00 | 42 | 1024.9 |
| 20260509004210 | 70 | 193 | 12.0 | 15.0 | 0.00 | 0.00 | 0.00 | 42 | 1024.9 |
| 20260509003710 | 71 | 179 | 7.0 | 16.0 | 0.00 | 0.00 | 0.00 | 42 | 1025.1 |
| 20260509002710 | 71 | 181 | 7.0 | 12.0 | 0.00 | 0.00 | 0.00 | 41 | 1024.8 |
| 20260509002209 | 70 | 191 | 6.0 | 12.0 | 0.00 | 0.00 | 0.00 | 41 | 1024.8 |
| 20260509001710 | 70 | 202 | 6.0 | 12.0 | 0.00 | 0.00 | 0.00 | 41 | 1024.8 |
| 20260509001210 | 70 | 200 | 4.0 | 10.0 | 0.00 | 0.00 | 0.00 | 43 | 1025.1 |
| 20260509000710 | 70 | 198 | 6.0 | 10.0 | 0.00 | 0.00 | 0.00 | 42 | 1025.2 |
| 20260509000211 | 70 | 189 | 4.0 | 10.0 | 0.00 | 0.00 | 0.00 | 43 | 1025.0 |
| 20260508235209 | 69 | 244 | 4.0 | 7.0 | 0.00 | 0.00 | 0.00 | 44 | 1025.1 |
| 20260508234709 | 69 | 245 | 5.0 | 8.0 | 0.00 | 0.00 | 0.00 | 45 | 1025.3 |
| 20260508234210 | 68 | 246 | 3.0 | 5.0 | 0.00 | 0.00 | 0.00 | 46 | 1024.9 |
| 20260508233710 | 68 | 240 | 3.0 | 6.0 | 0.00 | 0.00 | 0.00 | 45 | 1025.0 |
| 20260508233209 | 68 | 247 | 3.0 | 8.0 | 0.00 | 0.00 | 0.00 | 47 | 1025.1 |
| 20260508232710 | 67 | 275 | 2.0 | 6.0 | 0.00 | 0.00 | 0.00 | 48 | 1025.0 |
| 20260508232209 | 67 | 261 | 3.0 | 5.0 | 0.00 | 0.00 | 0.00 | 49 | 1025.0 |
| 20260508231709 | 67 | 282 | 3.0 | 5.0 | 0.00 | 0.00 | 0.00 | 48 | 1025.1 |
| 20260508230210 | 64 | 256 | 3.0 | 6.0 | 0.00 | 0.00 | 0.00 | 53 | 1025.1 |
| 20260508225210 | 62 | 267 | 5.0 | 10.0 | 0.00 | 0.00 | 0.00 | 56 | 1025.1 |
| 20260508224710 | 61 | 275 | 6.0 | 9.0 | 0.00 | 0.00 | 0.00 | 57 | 1025.1 |
| 20260508224210 | 61 | 268 | 7.0 | 10.0 | 0.00 | 0.00 | 0.00 | 58 | 1024.9 |
| 20260508223710 | 60 | 281 | 6.0 | 10.0 | 0.00 | 0.00 | 0.00 | 60 | 1024.9 |
| 20260508223210 | 59 | 279 | 7.0 | 9.0 | 0.00 | 0.00 | 0.00 | 61 | 1024.9 |
| 20260508222710 | 59 | 285 | 6.0 | 9.0 | 0.00 | 0.00 | 0.00 | 63 | 1024.9 |
| 20260508222210 | 58 | 283 | 6.0 | 10.0 | 0.00 | 0.00 | 0.00 | 63 | 1024.8 |
| 20260508221710 | 58 | 288 | 7.0 | 10.0 | 0.00 | 0.00 | 0.00 | 63 | 1024.9 |
| 20260508221210 | 58 | 281 | 6.0 | 9.0 | 0.00 | 0.00 | 0.00 | 65 | 1024.8 |
| 20260508220709 | 57 | 282 | 7.0 | 10.0 | 0.00 | 0.00 | 0.00 | 65 | 1024.6 |
| 20260508220210 | 57 | 286 | 8.0 | 10.0 | 0.00 | 0.00 | 0.00 | 66 | 1024.5 |
| 20260508215709 | 57 | 281 | 8.0 | 10.0 | 0.00 | 0.00 | 0.00 | 67 | 1024.6 |
| 20260508215210 | 56 | 280 | 8.0 | 10.0 | 0.00 | 0.00 | 0.00 | 67 | 1024.5 |
| 20260508213210 | 56 | 290 | 9.0 | 12.0 | 0.00 | 0.00 | 0.00 | 69 | 1024.4 |
| 20260508212709 | 56 | 287 | 8.0 | 10.0 | 0.00 | 0.00 | 0.00 | 68 | 1024.3 |
| 20260508212210 | 55 | 287 | 9.0 | 12.0 | 0.00 | 0.00 | 0.00 | 69 | 1024.5 |
| 20260508211709 | 55 | 280 | 10.0 | 13.0 | 0.00 | 0.00 | 0.00 | 69 | 1024.4 |
| 20260508210209 | 55 | 275 | 9.0 | 12.0 | 0.00 | 0.00 | 0.00 | 69 | 1024.1 |
| 20260508205710 | 55 | 276 | 10.0 | 12.0 | 0.00 | 0.00 | 0.00 | 69 | 1024.1 |
| 20260508205209 | 55 | 282 | 10.0 | 12.0 | 0.00 | 0.00 | 0.00 | 69 | 1023.9 |
| 20260508204709 | 55 | 289 | 10.0 | 13.0 | 0.00 | 0.00 | 0.00 | 68 | 1023.8 |
| 20260508204209 | 55 | 293 | 10.0 | 12.0 | 0.00 | 0.00 | 0.00 | 67 | 1023.8 |
| 20260508203209 | 57 | 298 | 9.0 | 12.0 | 0.00 | 0.00 | 0.00 | 64 | 1023.5 |
| 20260508202709 | 57 | 291 | 6.0 | 8.0 | 0.00 | 0.00 | 0.00 | 62 | 1023.6 |
| 20260508202209 | 58 | 269 | 6.0 | 8.0 | 0.00 | 0.00 | 0.00 | 61 | 1023.6 |
| 20260508201709 | 58 | 265 | 7.0 | 9.0 | 0.00 | 0.00 | 0.00 | 61 | 1023.2 |
| 20260508201209 | 58 | 265 | 6.0 | 8.0 | 0.00 | 0.00 | 0.00 | 61 | 1023.2 |
| 20260508200709 | 58 | 264 | 6.0 | 8.0 | 0.00 | 0.00 | 0.00 | 61 | 1023.1 |
| 20260508200209 | 58 | 278 | 6.0 | 7.0 | 0.00 | 0.00 | 0.00 | 61 | 1023.4 |
| 20260508195710 | 58 | 259 | 6.0 | 8.0 | 0.00 | 0.00 | 0.00 | 61 | 1023.2 |
| 20260508195209 | 58 | 258 | 6.0 | 7.0 | 0.00 | 0.00 | 0.00 | 61 | 1022.9 |
| 20260508194709 | 58 | 261 | 6.0 | 7.0 | 0.00 | 0.00 | 0.00 | 62 | 1023.1 |
| 20260508194210 | 58 | 269 | 6.0 | 7.0 | 0.00 | 0.00 | 0.00 | 62 | 1022.8 |
| 20260508193709 | 58 | 272 | 6.0 | 8.0 | 0.00 | 0.00 | 0.00 | 62 | 1022.9 |
| 20260508192710 | 58 | 283 | 7.0 | 9.0 | 0.00 | 0.00 | 0.00 | 62 | 1022.7 |
| 20260508192209 | 58 | 285 | 7.0 | 9.0 | 0.00 | 0.00 | 0.00 | 63 | 1022.9 |
| 20260508191710 | 58 | 281 | 7.0 | 8.0 | 0.00 | 0.00 | 0.00 | 63 | 1022.5 |
| 20260508191210 | 58 | 285 | 5.0 | 6.0 | 0.00 | 0.00 | 0.00 | 63 | 1022.5 |
| 20260508190709 | 58 | 277 | 5.0 | 7.0 | 0.00 | 0.00 | 0.00 | 63 | 1022.6 |
| 20260508190209 | 58 | 274 | 6.0 | 7.0 | 0.00 | 0.00 | 0.00 | 63 | 1022.4 |
| 20260508185209 | 58 | 282 | 6.0 | 8.0 | 0.00 | 0.00 | 0.00 | 62 | 1022.4 |
| 20260508184709 | 58 | 279 | 6.0 | 9.0 | 0.00 | 0.00 | 0.00 | 62 | 1022.4 |
| 20260508184209 | 58 | 269 | 5.0 | 8.0 | 0.00 | 0.00 | 0.00 | 63 | 1022.4 |
| 20260508183709 | 58 | 248 | 6.0 | 9.0 | 0.00 | 0.00 | 0.00 | 63 | 1022.4 |
| 20260508183209 | 58 | 251 | 7.0 | 10.0 | 0.00 | 0.00 | 0.00 | 63 | 1022.4 |
| 20260508182709 | 58 | 251 | 9.0 | 12.0 | 0.00 | 0.00 | 0.00 | 63 | 1022.2 |
| 20260508182209 | 58 | 253 | 7.0 | 10.0 | 0.00 | 0.00 | 0.00 | 63 | 1022.1 |
| 20260508181709 | 58 | 242 | 7.0 | 10.0 | 0.00 | 0.00 | 0.00 | 63 | 1022.2 |
| 20260508181209 | 58 | 249 | 7.0 | 12.0 | 0.00 | 0.00 | 0.00 | 63 | 1022.1 |
| 20260508180209 | 58 | 244 | 7.0 | 10.0 | 0.00 | 0.00 | 0.00 | 63 | 1022.0 |
| 20260508175709 | 58 | 265 | 6.0 | 12.0 | 0.00 | 0.00 | 0.00 | 63 | 1022.4 |
| 20260508175209 | 58 | 252 | 10.0 | 12.0 | 0.00 | 0.00 | 0.00 | 62 | 1022.0 |
| 20260508174709 | 58 | 248 | 10.0 | 13.0 | 0.00 | 0.00 | 0.00 | 63 | 1021.9 |
| 20260508174209 | 58 | 251 | 11.0 | 13.0 | 0.00 | 0.00 | 0.00 | 63 | 1022.0 |